TimeCST,TemperatureF,Dew PointF,Humidity,Sea Level PressureIn,VisibilityMPH,Wind Direction,Wind SpeedMPH,Gust SpeedMPH,PrecipitationIn,Events,Conditions,WindDirDegrees,DateUTC
12:53 AM,12.0,-2.9,51,30.48,10.0,NNW,8.1,-,N/A,,Overcast,340,2013-12-06 06:53:00
1:53 AM,12.0,-4.0,49,30.48,10.0,North,12.7,-,N/A,,Overcast,360,2013-12-06 07:53:00
2:53 AM,10.9,-2.9,54,30.51,10.0,North,9.2,-,N/A,,Overcast,350,2013-12-06 08:53:00
3:53 AM,10.9,-2.9,54,30.50,10.0,NNW,12.7,-,N/A,,Overcast,340,2013-12-06 09:53:00
4:53 AM,10.9,-2.9,54,30.51,10.0,NNW,13.8,-,N/A,,Overcast,340,2013-12-06 10:53:00
5:53 AM,10.0,-2.9,56,30.53,10.0,NNW,12.7,18.4,N/A,,Overcast,340,2013-12-06 11:53:00
6:53 AM,7.0,-4.0,61,30.52,10.0,NNW,15.0,20.7,N/A,,Overcast,340,2013-12-06 12:53:00
7:53 AM,6.1,-5.1,60,30.56,10.0,NNW,9.2,-,N/A,,Clear,340,2013-12-06 13:53:00
8:53 AM,8.1,-5.1,55,30.57,10.0,NNW,12.7,-,N/A,,Mostly Cloudy,340,2013-12-06 14:53:00
9:53 AM,9.0,-5.1,53,30.60,10.0,North,15.0,-,N/A,,Clear,350,2013-12-06 15:53:00
10:53 AM,10.0,-5.1,51,30.61,10.0,North,12.7,-,N/A,,Clear,360,2013-12-06 16:53:00
11:53 AM,12.0,-5.1,46,30.61,10.0,North,12.7,-,N/A,,Mostly Cloudy,360,2013-12-06 17:53:00
12:53 PM,12.9,-4.0,47,30.59,10.0,NNW,13.8,20.7,N/A,,Overcast,330,2013-12-06 18:53:00
1:53 PM,14.0,-4.0,45,30.58,10.0,North,12.7,-,N/A,,Overcast,350,2013-12-06 19:53:00
2:53 PM,12.9,-4.0,47,30.58,10.0,North,11.5,-,N/A,,Overcast,350,2013-12-06 20:53:00
3:53 PM,12.9,-4.0,47,30.60,10.0,North,10.4,-,N/A,,Overcast,350,2013-12-06 21:53:00
4:53 PM,12.9,-4.0,47,30.62,10.0,North,11.5,-,N/A,,Overcast,360,2013-12-06 22:53:00
5:53 PM,12.0,-2.0,53,30.64,10.0,NNW,5.8,-,N/A,,Overcast,340,2013-12-06 23:53:00
6:53 PM,12.0,-2.0,53,30.66,10.0,North,8.1,-,N/A,,Overcast,350,2013-12-07 00:53:00
7:53 PM,8.1,-2.9,61,30.69,10.0,North,5.8,-,N/A,,Clear,350,2013-12-07 01:53:00
8:53 PM,7.0,-2.9,64,30.72,10.0,NNW,5.8,-,N/A,,Clear,340,2013-12-07 02:53:00
9:53 PM,5.0,-4.0,66,30.73,10.0,NNW,5.8,-,N/A,,Clear,340,2013-12-07 03:53:00
10:53 PM,3.9,-4.0,70,30.75,10.0,NNW,4.6,-,N/A,,Clear,330,2013-12-07 04:53:00
11:53 PM,3.9,-4.0,70,30.75,10.0,North,6.9,-,N/A,,Clear,350,2013-12-07 05:53:00